Temp
73 72 71 70 70 70 69 68 68 67 67 67 67 67 67 68 69 68 69 71 72 73 74 69 66 66 64 68 67 65 62 61 61 51 50 50 50 49 50 51 51 50 51
72 70 69 69 69 68 68 67 67 66 66 66 66 67 68 68 68 68 65 66 68 66 66 62 62 63 63 64 66 62 58 56 56 49 47 46 48 50 51 49 49 50 50
71 69 67 67 67 66 66 66 66 65 65 66 66 66 67 67 68 66 64 68 66 62 59 57 59 61 60 60 60 60 59 57 54 50 44 47 47 48 46 48 47 48 49
68 67 66 65 65 66 66 65 65 65 64 64 65 66 66 68 68 63 61 63 61 57 56 56 57 58 58 58 58 57 55 52 49 46 44 44 44 47 46 44 43 45 44
66 65 64 65 65 65 65 65 63 62 60 61 61 66 66 62 61 59 60 59 56 54 54 56 55 54 53 53 60 55 53 50 46 44 43 43 43 43 42 44 42 43 44
64 63 63 62 61 60 60 59 59 59 59 58 62 60 59 58 50 51 56 54 52 52 53 55 57 56 52 51 51 50 52 49 45 44 42 41 41 42 44 43 43 44 43
61 60 59 57 56 56 57 57 57 57 57 56 58 57 55 54 47 48 51 52 52 53 54 57 60 60 58 57 52 51 50 49 49 47 43 42 42 44 45 46 49 49 45
55 55 55 54 54 54 55 56 55 56 54 57 54 53 51 49 47 47 49 51 51 52 55 59 60 59 58 58 57 56 55 54 52 52 48 48 49 52 53 52 52 51 51
50 51 52 51 50 51 53 53 54 54 57 52 50 49 49 48 46 46 49 50 51 54 59 61 60 58 46 49 58 55 54 52 49 46 45 45 44 45 49 54 51 50 50
47 49 50 50 50 49 48 50 51 53 50 48 47 48 47 46 43 45 48 48 49 53 56 56 45 52 44 46 58 57 52 52 53 53 52 49 52 51 51 54 55 51 49
46 47 48 49 49 51 49 51 49 47 46 45 44 44 45 45 43 43 45 49 52 49 52 56 54 43 43 44 49 56 52 55 54 56 56 57 56 57 56 57 54 53 49
44 45 46 47 49 50 48 47 46 45 43 43 42 42 43 44 44 42 42 43 46 48 47 48 51 41 42 44 51 44 45 52 56 57 57 56 55 55 56 54 54 54 52
43 44 45 46 47 47 45 44 43 43 42 42 41 41 41 42 42 42 42 44 46 49 51 45 43 42 43 47 43 43 47 60 60 59 58 57 56 57 55 54 53 53 53
43 43 44 45 45 45 45 44 43 42 41 41 41 40 41 42 42 45 47 50 47 52 52 56 50 49 48 53 57 57 59 59 60 60 60 62 62 59 54 55 52 53 53
44 43 42 42 40 40 40 42 42 42 42 42 42 42 41 42 45 44 47 55 58 53 57 60 58 57 57 57 58 59 59 59 60 60 61 61 62 60 58 55 54 52 53
41 41 41 41 41 41 40 38 40 40 40 40 41 44 43 41 40 40 40 41 41 44 54 54 53 54 54 56 57 57 59 58 60 61 60 61 61 59 54 54 53 51 48
40 41 41 41 41 41 42 42 37 39 40 39 39 39 40 40 40 41 41 40 42 47 55 56 56 57 58 58 59 59 58 58 60 60 60 59 60 60 52 49 48 48 48
42 41 41 42 43 45 49 50 50 48 45 45 41 44 40 40 41 41 42 47 57 56 58 57 57 57 58 58 59 58 58 58 59 58 58 58 59 59 54 50 48 46 46
42 42 43 44 46 47 51 54 54 52 51 49 51 48 47 42 43 43 46 57 56 55 56 56 57 58 58 58 58 59 57 56 56 57 57 56 57 58 56 50 49 42 42
43 42 46 48 47 49 50 52 53 55 56 56 55 56 57 56 56 56 57 57 56 57 57 57 58 59 59 60 59 59 57 56 57 57 56 55 56 58 52 50 49 45 45
47 45 44 51 49 51 54 55 56 57 55 53 52 49 36 57 56 56 57 58 58 57 57 58 60 60 60 59 59 59 57 57 57 57 56 54 55 55 51 51 49 45 43
48 47 50 52 55 57 56 58 59 58 57 56 55 54 39 59 58 57 57 58 59 60 61 60 60 59 59 59 59 58 56 55 55 56 56 55 55 54 50 50 48 44 41
48 50 52 57 57 52 59 61 60 60 59 59 60 59 59 59 58 58 57 58 59 59 60 60 59 59 60 59 59 58 56 55 55 56 56 55 52 50 49 49 45 42 40
54 58 61 62 62 62 61 60 60 54 60 60 59 59 58 58 57 57 58 58 58 59 59 58 57 57 58 58 58 56 52 50 57 57 57 56 51 49 50 50 47 41 39
63 63 62 62 61 61 61 61 61 60 60 59 59 58 58 58 57 58 58 58 58 57 57 57 58 57 55 54 54 52 38 34 47 38 58 57 56 51 50 50 48 42 39
63 63 63 63 62 62 61 60 60 60 59 59 59 58 58 58 58 58 58 58 57 57 57 57 56 55 54 53 47 35 33 34 43 35 55 57 55 54 52 51 49 44 39
MSLP
1012.69 1012.84 1012.97 1012.93 1012.96 1013.02 1012.89 1012.69 1012.76 1012.67 1012.46 1012.07 1011.67 1011.21 1010.70 1010.09 1009.52 1008.99 1008.42 1007.70 1007.01 1006.58 1006.29 1006.58 1006.47 1006.33 1005.95 1005.46 1005.23 1005.16 1005.05 1005.00 1004.70 1006.09 1006.68 1007.15 1007.15 1007.40 1007.84 1008.38 1008.79 1009.22 1009.57
1012.11 1012.73 1012.84 1012.70 1012.60 1012.55 1012.23 1012.26 1012.35 1012.19 1011.91 1011.56 1011.09 1010.58 1010.04 1009.49 1008.97 1008.41 1008.10 1007.74 1007.15 1007.16 1007.24 1007.11 1006.69 1006.54 1006.06 1005.74 1005.45 1005.47 1005.48 1005.62 1005.54 1005.92 1007.27 1007.77 1007.78 1007.85 1008.28 1008.71 1009.22 1009.41 1010.41
1011.76 1012.35 1012.27 1012.20 1012.11 1011.92 1011.83 1011.91 1011.94 1011.75 1011.41 1011.02 1010.54 1010.05 1009.47 1009.06 1008.47 1008.13 1008.08 1007.28 1007.41 1007.86 1007.92 1007.63 1007.23 1006.74 1006.43 1006.41 1006.21 1006.13 1005.98 1006.04 1006.19 1006.50 1007.69 1008.34 1008.66 1008.55 1009.02 1009.42 1009.96 1010.15 1010.16
1011.58 1011.71 1011.78 1011.74 1011.60 1011.44 1011.39 1011.46 1011.42 1011.36 1011.07 1010.59 1010.19 1009.63 1009.22 1008.55 1008.05 1008.23 1008.15 1007.82 1008.15 1008.46 1008.27 1008.15 1007.83 1007.43 1007.21 1007.01 1006.91 1006.90 1006.96 1006.89 1007.18 1007.60 1008.33 1008.91 1009.17 1009.69 1009.85 1010.09 1010.73 1011.29 1010.55
1011.17 1011.12 1011.16 1011.13 1011.10 1011.01 1010.83 1010.85 1011.10 1011.15 1011.07 1010.71 1010.29 1009.34 1008.82 1008.65 1008.41 1008.50 1008.19 1008.38 1008.73 1008.84 1008.84 1008.63 1008.74 1008.69 1008.47 1008.18 1007.22 1007.60 1007.70 1007.82 1008.14 1008.50 1009.07 1009.47 1009.89 1010.23 1010.66 1010.89 1011.22 1011.27 1011.43
1010.76 1010.69 1010.78 1010.77 1010.77 1010.78 1010.80 1010.81 1010.93 1010.67 1010.51 1010.52 1009.64 1009.39 1008.96 1008.89 1009.00 1008.69 1008.52 1009.01 1009.15 1009.18 1009.10 1009.12 1009.12 1009.23 1009.55 1009.29 1009.07 1009.02 1008.61 1008.71 1009.08 1009.41 1009.94 1010.35 1010.74 1011.01 1011.26 1011.42 1011.64 1011.22 1011.15
1010.76 1010.66 1010.74 1010.76 1010.77 1010.84 1010.79 1010.64 1010.41 1010.11 1010.09 1010.06 1009.57 1009.25 1009.23 1009.25 1009.27 1009.16 1009.32 1009.37 1009.42 1009.41 1009.35 1009.11 1009.12 1009.60 1009.57 1009.74 1009.73 1009.82 1009.94 1009.99 1010.28 1010.66 1010.98 1011.32 1011.54 1011.69 1011.57 1011.31 1011.28 1011.11 1011.26
1010.48 1010.54 1010.67 1010.72 1010.66 1010.57 1010.29 1010.01 1009.81 1009.81 1009.89 1009.49 1009.68 1009.62 1009.69 1009.88 1009.81 1009.80 1009.78 1009.85 1009.83 1009.84 1009.81 1009.64 1009.70 1009.96 1010.17 1010.03 1009.94 1010.00 1010.51 1010.85 1011.02 1011.23 1011.76 1011.90 1011.87 1011.67 1011.42 1011.46 1011.33 1011.40 1011.30
1010.53 1010.45 1010.47 1010.53 1010.54 1010.41 1009.91 1009.80 1009.73 1009.73 1009.39 1009.76 1009.88 1010.04 1010.03 1010.31 1010.39 1010.41 1010.39 1010.51 1010.43 1010.33 1010.13 1010.35 1010.56 1010.79 1010.97 1010.51 1010.41 1010.60 1011.32 1011.93 1012.59 1012.53 1012.60 1012.45 1012.34 1012.16 1012.08 1011.59 1011.19 1010.90 1010.66
1010.44 1010.28 1010.40 1010.48 1010.29 1010.28 1010.36 1010.04 1009.71 1009.56 1009.90 1010.17 1010.43 1010.49 1010.67 1010.95 1011.20 1011.11 1011.23 1011.30 1011.22 1011.12 1011.27 1011.69 1011.96 1011.93 1011.76 1011.25 1010.91 1011.19 1011.70 1012.10 1012.25 1012.37 1012.55 1012.64 1012.11 1012.30 1011.96 1011.58 1011.00 1010.91 1011.07
1010.24 1010.20 1010.22 1010.21 1010.10 1009.97 1010.24 1010.14 1010.15 1010.21 1010.45 1010.78 1011.04 1011.33 1011.64 1011.88 1012.04 1011.93 1012.03 1011.96 1011.97 1012.27 1012.20 1012.51 1012.98 1012.97 1012.79 1012.38 1011.91 1012.03 1012.45 1012.39 1012.42 1012.22 1012.23 1012.13 1012.17 1012.06 1012.01 1011.99 1012.12 1011.90 1011.95
1009.85 1009.99 1010.09 1010.16 1010.18 1009.93 1010.28 1010.42 1010.50 1010.81 1011.05 1011.42 1011.64 1012.16 1012.48 1012.61 1012.88 1012.95 1012.68 1013.34 1013.46 1013.24 1013.77 1013.74 1013.81 1013.74 1013.70 1013.48 1013.28 1013.29 1013.17 1012.86 1012.69 1012.26 1012.23 1012.31 1012.45 1012.47 1012.65 1012.89 1013.01 1012.86 1013.11
1009.57 1009.85 1010.05 1010.26 1010.40 1010.41 1010.51 1010.77 1010.99 1011.39 1011.72 1012.11 1012.33 1012.67 1013.19 1013.54 1013.50 1014.16 1014.17 1014.07 1014.24 1014.18 1014.33 1014.24 1014.20 1014.34 1014.29 1014.09 1013.98 1013.71 1013.11 1012.54 1012.24 1011.98 1012.00 1012.37 1012.91 1013.15 1013.25 1013.24 1013.34 1013.30 1013.22
1009.54 1009.99 1010.31 1010.38 1010.48 1010.60 1010.93 1011.36 1011.77 1012.23 1012.51 1012.66 1012.98 1013.40 1014.03 1014.12 1014.80 1015.09 1014.78 1014.82 1014.92 1014.61 1014.39 1014.35 1014.46 1014.49 1014.24 1013.97 1013.60 1013.73 1013.60 1013.38 1012.80 1012.43 1012.24 1012.13 1012.26 1012.68 1013.05 1012.94 1012.87 1012.93 1012.90
1009.85 1010.23 1010.65 1011.00 1011.22 1011.56 1011.98 1012.38 1012.76 1013.17 1013.31 1013.51 1013.67 1014.29 1014.56 1015.04 1015.54 1015.45 1015.22 1014.89 1014.59 1014.63 1014.22 1014.27 1014.34 1014.39 1014.33 1014.38 1014.22 1014.05 1014.07 1013.73 1013.37 1013.19 1012.76 1012.36 1012.09 1012.55 1012.97 1013.34 1013.39 1013.35 1013.07
1010.48 1010.91 1011.38 1011.70 1012.04 1012.38 1012.69 1013.55 1014.17 1014.31 1014.59 1014.77 1015.06 1015.19 1015.78 1016.11 1016.08 1016.10 1016.05 1016.03 1015.85 1015.46 1015.23 1015.10 1015.16 1015.01 1014.82 1014.59 1014.46 1014.48 1014.30 1014.18 1013.86 1013.61 1013.31 1012.93 1012.70 1012.97 1013.84 1013.78 1014.02 1013.86 1013.88
1011.51 1011.95 1012.28 1012.58 1012.94 1013.22 1013.65 1013.93 1014.91 1015.97 1015.95 1016.09 1016.24 1016.45 1016.71 1016.92 1016.95 1016.95 1016.84 1016.60 1016.28 1015.90 1015.42 1015.39 1015.26 1015.13 1015.12 1015.10 1014.99 1014.95 1014.92 1015.08 1014.71 1014.39 1014.07 1013.84 1013.47 1013.36 1014.32 1014.67 1014.78 1014.74 1014.53
1012.65 1012.93 1013.09 1013.44 1013.70 1013.84 1013.98 1014.58 1015.22 1015.68 1016.33 1017.14 1017.58 1017.60 1017.67 1017.61 1017.57 1017.37 1017.01 1016.39 1016.19 1016.14 1016.01 1015.98 1015.99 1016.04 1015.97 1015.90 1015.90 1015.83 1015.85 1015.74 1015.50 1015.30 1015.02 1014.76 1014.20 1013.89 1014.47 1015.03 1015.34 1015.48 1015.38
1013.67 1013.93 1014.12 1014.26 1014.50 1014.66 1014.80 1015.11 1015.44 1015.99 1016.57 1017.19 1017.68 1018.17 1018.24 1018.12 1017.89 1017.59 1017.26 1016.99 1016.95 1016.96 1017.02 1017.01 1017.02 1016.97 1016.92 1016.89 1016.74 1016.75 1016.89 1016.86 1016.50 1016.11 1015.94 1015.74 1015.40 1014.80 1014.89 1015.66 1015.85 1016.23 1016.24
1014.91 1015.09 1014.85 1015.14 1015.44 1015.62 1015.76 1015.82 1015.98 1016.29 1016.49 1017.01 1017.42 1017.72 1017.93 1017.84 1017.86 1017.92 1018.00 1017.97 1017.89 1017.92 1018.01 1017.99 1018.03 1017.93 1017.76 1017.66 1017.61 1017.52 1017.46 1017.32 1017.04 1016.78 1016.80 1016.78 1016.36 1015.72 1016.13 1016.23 1016.52 1016.82 1016.70
1015.73 1016.02 1015.91 1015.99 1016.27 1016.24 1015.98 1016.22 1016.47 1016.65 1017.12 1017.85 1018.50 1018.94 1018.80 1018.49 1018.61 1018.72 1018.81 1018.85 1018.84 1018.93 1018.98 1018.91 1018.83 1018.85 1018.74 1018.61 1018.46 1018.38 1018.24 1018.08 1017.85 1017.55 1017.40 1017.48 1017.15 1016.53 1017.02 1016.94 1017.11 1017.50 1017.54
1016.59 1016.65 1016.57 1016.50 1016.36 1016.41 1016.76 1016.76 1016.97 1017.41 1017.91 1018.39 1019.03 1019.63 1019.47 1019.20 1019.41 1019.64 1019.81 1019.83 1019.85 1019.80 1019.79 1019.78 1019.88 1020.01 1019.99 1019.72 1019.50 1019.36 1019.22 1019.05 1018.88 1018.44 1018.13 1018.09 1017.61 1017.62 1017.79 1017.54 1017.77 1018.16 1018.24
1017.35 1017.32 1017.17 1016.93 1017.18 1017.22 1017.18 1017.41 1017.67 1017.97 1018.36 1018.75 1019.13 1019.48 1019.82 1020.06 1020.32 1020.53 1020.72 1020.86 1020.95 1021.04 1021.07 1020.99 1020.96 1020.97 1021.00 1020.90 1020.74 1020.60 1020.44 1020.15 1019.87 1019.48 1018.85 1018.62 1018.70 1018.60 1018.54 1018.27 1018.77 1018.91 1018.87
1017.69 1017.23 1017.00 1017.03 1017.17 1017.49 1017.87 1018.28 1018.66 1018.87 1019.11 1019.54 1019.98 1020.37 1020.77 1021.11 1021.36 1021.65 1021.71 1021.84 1022.00 1022.17 1022.30 1022.43 1022.50 1022.34 1021.97 1021.79 1021.84 1022.08 1022.42 1022.19 1020.86 1020.22 1019.70 1019.28 1019.41 1019.27 1019.08 1018.79 1019.14 1019.61 1019.53
1017.48 1017.48 1017.58 1017.75 1018.05 1018.42 1018.66 1018.96 1019.34 1019.73 1020.13 1020.55 1020.95 1021.36 1021.75 1022.06 1022.29 1022.45 1022.57 1022.80 1023.02 1023.25 1023.44 1023.34 1023.24 1023.33 1023.43 1023.44 1023.44 1023.56 1023.91 1023.42 1022.52 1021.78 1020.52 1020.10 1019.58 1019.78 1019.75 1019.56 1019.65 1020.22 1020.18
1018.17 1018.27 1018.37 1018.60 1018.84 1019.18 1019.52 1019.88 1020.30 1020.72 1021.07 1021.50 1021.91 1022.28 1022.62 1022.86 1023.05 1023.21 1023.39 1023.66 1023.92 1024.14 1024.19 1024.26 1024.31 1024.32 1024.34 1024.64 1025.07 1025.19 1024.71 1024.07 1023.33 1022.60 1021.35 1020.79 1020.56 1020.33 1020.13 1020.04 1020.11 1020.73 1020.96
Wind_Speed
9 9 8 9 10 10 10 11 12 12 14 14 15 15 15 15 16 14 15 16 16 15 14 14 11 8 7 7 6 5 6 5 8 3 4 6 6 9 10 10 10 9 7
9 9 10 10 11 12 11 11 12 14 13 14 14 14 15 15 15 15 12 12 13 11 13 10 8 5 7 5 5 5 4 4 3 3 3 2 6 9 11 11 9 9 7
9 11 12 12 13 13 13 11 12 13 14 14 14 15 14 15 15 11 12 13 9 7 6 6 6 7 6 6 6 5 5 4 4 3 4 2 4 8 10 10 8 9 7
13 13 14 14 14 13 13 12 12 13 15 15 14 14 15 15 14 9 7 6 4 3 4 7 8 8 6 5 5 5 5 6 8 8 7 6 5 6 6 7 7 3 6
16 15 15 15 14 14 13 12 12 13 13 14 16 14 14 11 4 6 4 0 4 7 7 9 12 14 19 17 6 7 7 7 8 8 7 7 5 4 4 3 4 4 4
17 17 17 15 14 13 13 12 15 15 13 13 14 13 10 6 7 3 4 7 6 6 7 9 12 17 20 24 24 26 15 11 11 8 7 8 8 5 4 3 1 3 3
18 17 15 13 13 12 14 16 17 13 11 13 11 10 5 4 6 9 9 6 5 5 6 8 9 9 13 15 21 24 25 25 21 11 10 7 7 3 2 3 2 5 3
17 16 14 13 15 15 14 13 10 9 9 11 9 1 3 5 8 9 10 7 7 8 8 9 11 12 12 14 16 19 18 16 12 10 9 6 5 2 4 5 5 4 4
16 15 13 11 11 9 10 10 7 8 11 5 2 3 7 8 9 10 9 7 9 8 11 12 12 13 7 7 15 17 17 15 14 15 12 11 9 8 6 1 1 4 3
14 12 10 10 12 8 7 8 6 6 2 5 6 8 12 11 11 11 9 6 9 9 13 13 18 11 11 8 14 14 13 10 9 9 8 8 10 8 3 7 6 6 5
11 10 8 8 8 7 6 6 4 4 7 8 10 11 12 12 13 16 11 7 10 8 8 10 9 12 13 15 13 12 10 8 6 8 7 7 7 8 8 9 10 8 6
9 7 7 6 4 1 0 1 6 7 9 9 11 10 9 12 16 20 19 13 4 8 9 7 9 12 10 9 10 6 2 6 6 7 8 8 7 7 8 8 8 7 6
7 7 5 3 4 3 5 6 7 8 8 8 8 9 8 8 10 17 13 10 10 8 8 8 10 11 11 8 3 5 3 6 6 7 7 7 6 4 2 2 3 2 4
7 6 5 4 6 7 6 6 8 7 7 8 9 10 9 9 7 6 6 9 8 9 10 9 12 9 7 6 7 9 8 8 7 7 6 5 6 7 3 3 3 2 5
7 8 9 9 11 12 11 8 9 8 8 8 9 8 8 8 7 7 6 6 8 8 8 8 9 9 9 9 7 8 7 7 7 7 6 6 6 8 7 7 6 5 6
11 9 8 9 9 10 12 13 22 20 20 18 14 10 10 13 15 14 15 15 12 9 10 10 9 8 8 8 8 7 8 8 9 8 8 7 7 9 9 7 7 6 6
12 11 9 10 9 11 11 13 14 16 24 22 21 19 16 15 15 14 11 8 5 8 9 9 8 9 9 8 8 8 8 9 9 8 8 8 7 8 7 8 6 6 5
13 17 10 10 10 11 13 15 13 14 13 12 15 13 14 13 12 9 8 9 11 11 10 10 10 9 9 10 9 9 9 9 8 8 8 8 8 8 9 6 7 7 6
11 10 9 9 10 11 13 14 13 14 14 13 13 14 14 12 12 11 10 11 11 10 10 10 10 9 9 9 8 8 9 8 8 8 8 8 8 7 10 6 7 7 7
12 12 12 12 11 11 10 11 12 13 12 12 11 11 9 8 11 11 11 11 11 10 10 10 10 9 9 10 9 8 8 9 9 8 8 7 8 7 9 8 9 7 7
10 9 12 13 11 8 10 13 11 12 12 12 12 11 8 11 11 11 11 11 10 11 10 10 10 9 9 9 9 9 9 9 9 9 9 8 8 8 8 7 8 8 7
10 9 10 11 10 12 12 11 13 13 13 13 13 9 5 10 11 11 11 11 10 10 9 9 10 10 9 10 10 9 10 11 11 10 9 8 7 10 7 8 9 8 7
9 11 12 12 13 12 12 12 12 12 12 12 11 10 10 10 11 11 11 11 10 10 10 10 9 9 9 9 11 12 11 10 10 10 9 9 9 8 7 8 9 8 7
12 13 12 12 11 12 12 12 12 12 12 11 11 11 11 11 11 12 10 10 10 10 10 9 10 13 10 10 11 12 12 11 10 10 11 9 9 8 7 9 9 9 7
11 11 12 12 12 12 11 12 11 11 11 11 11 10 11 10 10 10 10 9 10 10 10 9 8 12 15 16 15 16 12 11 12 13 10 11 10 11 9 8 10 9 9
11 12 11 10 10 11 10 11 11 11 11 10 10 10 10 9 9 9 9 10 9 9 10 8 11 14 14 13 13 10 9 10 11 15 9 10 11 10 8 9 13 10 9
Wind_Direction
269 274 280 283 280 273 278 286 290 296 294 293 292 290 288 289 289 284 280 277 272 281 300 302 295 297 296 292 293 294 291 318 264 99 62 24 55 81 81 65 68 68 79
257 284 285 290 284 275 286 291 297 298 298 295 291 289 289 292 291 288 288 288 276 299 304 305 293 299 288 303 302 314 333 340 306 113 78 62 90 99 97 93 91 79 69
281 278 289 295 290 287 289 289 298 299 297 294 294 290 292 294 292 297 300 298 323 318 330 328 321 329 351 346 344 340 360 14 9 115 107 96 76 100 94 83 81 92 82
288 285 287 291 290 287 281 282 293 300 300 293 299 292 294 288 297 308 305 319 335 24 28 31 22 13 4 5 20 26 43 66 75 90 95 93 84 82 83 101 89 63 83
287 283 289 291 289 286 273 280 300 296 297 301 286 293 295 306 307 313 294 88 116 82 68 68 60 61 55 39 35 52 65 79 88 94 92 90 91 82 67 76 102 108 95
293 291 292 292 285 279 274 293 294 285 282 281 287 294 302 310 342 305 137 117 97 106 105 95 89 83 71 67 67 57 58 83 78 77 75 73 65 63 55 66 107 177 141
291 291 287 280 281 282 279 280 273 273 276 276 287 305 307 359 71 95 100 102 112 109 116 104 99 101 92 90 83 77 68 68 66 66 67 55 65 52 158 166 55 55 62
286 284 281 284 281 278 272 275 277 266 267 272 307 332 78 77 89 93 88 85 83 78 89 102 93 89 92 95 90 82 69 63 66 75 74 74 74 101 83 75 93 123 140
283 279 279 281 275 304 274 281 276 264 265 316 79 107 102 91 80 86 93 91 96 101 99 89 96 94 38 64 89 89 86 81 81 87 93 94 80 57 9 16 69 322 76
270 270 260 263 266 248 291 289 293 342 2 94 88 79 79 76 61 70 84 95 103 106 97 81 45 59 31 30 97 92 88 91 110 107 116 133 107 106 62 32 25 42 22
264 262 258 262 276 236 251 288 351 95 100 92 85 76 75 73 60 53 51 55 82 73 70 82 76 48 39 40 57 82 79 96 88 82 73 80 84 78 63 48 37 37 37
238 234 236 239 272 136 182 19 111 110 100 97 94 90 82 79 74 66 58 54 91 88 91 81 79 61 51 62 91 99 108 81 91 79 64 61 59 46 51 49 46 49 64
194 198 189 161 207 107 96 104 101 94 97 101 99 95 89 84 78 69 77 82 71 90 98 109 112 106 112 101 112 242 246 60 67 65 73 83 72 79 104 125 126 74 68
132 128 150 136 100 94 89 86 88 93 100 98 96 96 98 89 91 96 94 97 123 116 112 88 90 89 86 122 85 66 63 46 34 43 50 54 107 106 39 3 110 56 44
115 100 94 88 86 80 66 70 81 64 76 99 91 96 100 100 87 77 83 106 93 55 100 92 75 66 65 58 55 56 42 42 46 35 31 28 36 68 46 33 59 7 41
94 93 91 94 90 89 89 82 61 75 74 73 75 84 75 91 86 81 76 70 55 46 86 85 79 68 62 57 56 55 43 36 28 29 28 21 30 47 29 25 32 21 21
87 90 91 90 93 100 102 97 96 71 72 70 70 68 73 92 88 87 90 93 107 98 77 81 76 66 59 55 52 46 45 33 20 26 24 19 12 74 36 49 22 17 11
82 82 87 91 99 101 106 107 107 102 98 91 62 80 74 77 87 107 139 133 83 66 64 63 62 56 50 45 40 36 31 23 26 22 25 18 9 11 80 25 47 27 12
87 91 91 94 95 91 102 105 103 99 97 102 103 89 84 79 72 54 59 76 76 72 66 62 55 51 47 44 38 44 39 34 16 21 25 23 3 6 54 20 62 48 24
83 85 92 93 98 95 98 105 102 102 100 96 101 105 112 103 81 75 71 71 68 66 64 60 55 49 43 38 38 39 36 27 24 25 31 23 6 8 51 22 38 24 10
86 74 77 91 91 100 97 90 95 93 86 79 74 62 44 87 85 78 72 66 65 63 60 56 50 46 46 42 41 34 31 30 25 25 31 23 15 16 41 33 42 25 19
92 96 98 106 114 95 99 101 95 97 97 97 96 84 45 82 82 80 77 71 68 63 60 59 55 49 40 33 29 38 34 31 22 19 25 33 11 44 18 24 39 30 23
95 99 104 98 101 120 105 102 100 98 97 95 94 91 86 83 80 76 72 68 65 59 53 49 51 47 47 41 38 29 24 25 28 17 17 39 38 20 33 35 38 26 17
112 113 107 104 98 99 96 92 89 82 92 92 90 88 86 84 81 78 76 73 67 63 60 59 52 44 37 46 46 42 31 4 15 27 20 39 38 31 27 35 50 36 20
109 102 104 105 103 106 109 99 95 94 95 95 94 91 89 87 83 80 77 74 69 66 58 52 52 55 49 45 43 38 17 349 358 334 37 27 40 48 40 37 51 42 27
101 101 101 101 100 100 99 98 98 98 97 94 93 92 91 91 88 84 80 76 74 67 64 58 58 54 52 48 38 17 350 343 347 337 3 37 42 28 50 43 54 53 31